LogoCoinalyze
    Ad-Free Version ホーム マーケット一覧 資金調達率一覧
    先物データ
    • 集計データ (コイン一覧)
    • 個別チャート
    • 全体チャート
    アラート
    TA
    Bitcoin Ethereum BNB Ripple Tron ZCash Dogecoin Monero UNUS SED LEO Chainlink Cardano Stellar Lumens Bitcoin Cash Litecoin Hedera Cronos Polkadot Ethereum Classic Algorand Cosmos Quant VeChain Dash Bitcoin SV BitTorrent Terra Decred Tezos Iota The Graph THETA Decentraland NEO Chiliz MultiversX Basic Attention Token Golem Horizen Qtum 0x DigiByte Beam RIF Token FTX Token Holo FUNToken Ontology Zilliqa Siacoin Nano aelf Ravencoin Enjin Coin Mask Network Verge WINk Status Waves IoTeX iExec RLC Power Ledger Steem Kyber Network Crystal Lisk Ark IOST WOO Network Ardor WAX Icon Storj Wanchain Loopring Bitcoin Diamond AdEx Bitcoin Gold Augur OmiseGO NEM MonaCoin BitShares Ren V Systems Komodo Nuls Mithril SOLVE Maker Aion EOS Nebulas HedgeTrade Bread Fetch.ai TomoChain Polygon Fantom Waltonchain GXChain Bytom Metaverse ETP MaidSafeCoin QASH
    注文する:
    その他
    • API
    • ローソク足パターン
    • 寄付する
    • お問い合わせ
    • サイトマップ
    • Privacy Policy
    • Disclaimer
    • Theme:
    日本語
    • English
    • Français
    • Русский
    • Deutsch
    • Türkçe
    • Nederlands
    • Português (BR)
    • Español
    • 한국어
    • 简体中文
     
    ログイン / サインアップ
    Markets/ Pepe/ PEPE to TRY/ PEPETRY Binance
    Trades
    WL
    チャット
    統計
    ニュース
    ⦷
    AAA
    0.00016770 52189400.00000000 00:00:40
    0.00016740 61653379.00000000 23:58:20
    0.00016736 469443839.00000000 23:57:10
    0.00016736 346332000.00000000 23:57:10
    0.00016736 393750000.00000000 23:57:09
    0.00016736 3800000.00000000 23:57:08
    0.00016736 52189400.00000000 23:57:07
    0.00016737 3799000.00000000 23:56:43
    0.00016736 23914206.00000000 23:56:41
    0.00016741 66030.00000000 23:55:58
    0.00016746 31858858.00000000 23:53:38
    0.00016746 47893200.00000000 23:53:38
    0.00016755 348532565.00000000 23:53:31
    0.00016753 42929001.00000000 23:53:31
    0.00016752 56089400.00000000 23:53:31
    0.00016751 89590.00000000 23:53:31
    0.00016750 52189400.00000000 23:53:31
    0.00016749 81360625.00000000 23:53:31
    0.00016748 182754.00000000 23:53:31
    0.00016746 52189400.00000000 23:53:31
    0.00016723 11467072.00000000 23:51:56
    0.00016726 60972.00000000 23:51:51
    0.00016732 89614.00000000 23:51:51
    0.00016732 89614.00000000 23:51:51
    0.00016732 89614.00000000 23:51:51
    0.00016735 110000.00000000 23:51:50
    0.00016752 296070934.00000000 23:51:13
    0.00016752 97499480.00000000 23:51:13
    0.00016752 42749810.00000000 23:51:13
    0.00016751 3900000.00000000 23:51:13
    0.00016750 135477833.00000000 23:51:13
    0.00016747 5481179.00000000 23:51:13
    0.00016746 52372133.00000000 23:51:13
    0.00016743 119904000.00000000 23:51:12
    0.00016747 89534.00000000 23:51:12
    0.00016748 89513.00000000 23:51:12
    0.00016749 89534.00000000 23:51:12
    0.00016751 89518.00000000 23:51:12
    0.00016752 5481179.00000000 23:51:12
    0.00016755 42749810.00000000 23:51:12
    0.00016757 42749800.00000000 23:51:07
    0.00016759 52189400.00000000 23:51:07
    0.00016751 50210600.00000000 23:51:05
    0.00016750 52189400.00000000 23:51:05
    0.00016748 42749800.00000000 23:51:04
    0.00016750 52189400.00000000 23:51:03
    0.00016740 89553.00000000 23:51:01
    0.00016744 5481179.00000000 23:51:01
    0.00016749 42749810.00000000 23:51:01
    0.00016752 19870969.00000000 23:49:39
    0.00016753 89513.00000000 23:49:39
    0.00016755 52189400.00000000 23:49:39
    0.00016775 3000000.00000000 23:48:48
    0.00016776 3000000.00000000 23:48:46
    0.00016770 3797000.00000000 23:48:40
    0.00016766 3000000.00000000 23:48:40
    0.00016769 3000000.00000000 23:48:40
    0.00016771 3000000.00000000 23:48:40
    0.00016774 3000000.00000000 23:48:39
    0.00016766 3900000.00000000 23:48:39
    0.00016756 3797000.00000000 23:48:39
    0.00016739 42749810.00000000 23:45:32
    0.00016752 590377.00000000 23:43:04
    0.00016758 80473200.00000000 23:41:43
    0.00016757 25815525.00000000 23:41:05
    0.00016761 26187660.00000000 23:40:57
    0.00016759 76212340.00000000 23:40:57
    0.00016754 5968723.00000000 23:40:30
    0.00016749 17911517.00000000 23:40:18
    0.00016748 3798000.00000000 23:40:18
    0.00016749 100066509.00000000 23:38:15
    0.00016749 121513340.00000000 23:38:15
    0.00016749 89534.00000000 23:38:15
    0.00016750 42749810.00000000 23:38:15
    0.00016751 52278921.00000000 23:38:15
    0.00016753 81038395.00000000 23:38:15
    0.00016754 52189400.00000000 23:38:15
    0.00016749 88734.00000000 23:37:13
    0.00016760 40410600.00000000 23:36:55
    0.00016759 52189400.00000000 23:36:55
    0.00016750 54189400.00000000 23:36:52
    0.00016740 608765873.00000000 23:36:43
    0.00016740 155224300.00000000 23:36:43
    0.00016740 393750000.00000000 23:36:43
    0.00016740 502390900.00000000 23:36:43
    0.00016740 393750000.00000000 23:36:43
    0.00016740 102400000.00000000 23:36:30
    0.00016740 52189400.00000000 23:36:27
    0.00016741 42749810.00000000 23:36:27
    0.00016742 52189400.00000000 23:36:27
    0.00016731 89630.00000000 23:35:53
    0.00016726 60994.00000000 23:35:06
    0.00016725 5.00000000 23:35:06
    0.00016725 89700.00000000 23:35:06
    0.00016677 3813000.00000000 23:29:28
    0.00016673 3729001.00000000 23:28:41
    0.00016671 89999.00000000 23:28:41
    0.00016643 90145.00000000 23:27:42
    0.00016641 183906.00000000 23:27:42
    0.00016639 3822000.00000000 23:27:14
    ログアウト
    AAA
    ヘルプ
    🙂 🤣 😎 🤗 😛 😉 😜 🤑 🤔 😑 😴 😕 🙃 😲 😇 🙁 😢 😬 😟 😠 🕺 🏃 💪 ✌ 👌 👍 👎 👏 👋 🤝 🍺 🍻 🐋 🐟 🦈 🗽 🚄 ✈ 🛑 🚀 🏦 🌚 ⭐ 🌞 ⚡ 🏆 💰 💲 🔨 ❓ ❗ 💯 🔶 🏁
    ☺
    ログイン または サインアップ してチャット
    24時間
    変化
    -2.11%
    出来高
    651,697,590,840
    最高値
    0.00017311
    最安値
    0.00016550
    7日間
    変化
    -8.70%
    出来高
    5,745,395,665,622
    最高値
    0.00019297
    最安値
    0.00016237
    30日間
    変化
    +21.65%
    出来高
    37,709,712,570,786
    最高値
    0.00021642
    最安値
    0.00012111
    Pepe price rallies 25% as whale demand and futures interest surge
    Key takeaways Pepe has gained 25% this week, including a combined 22% advance over the previous two days. Seven whale transactions worth more than $1 million each occurred Thursday, the highest...
    coinjournal.net
    Aug 21, 2026 08:41
    PEPE Supply on Exchanges Just Took a Massive Hit – What’s Next?
    A drop in PEPE exchange balances has added to bullish expectations despite muted trader interest.
    cryptopotato.com
    Aug 6, 2026 20:02
    PEPE Exchange Outflows Hit Nearly 2-Year High as Whales Accumulate
    Pepe (PEPE) recorded its largest single-day exchange outflow since November 2024, with 4.54 trillion tokens leaving trading platforms, signaling that holders are moving supply away from immediate...
    beincrypto.com
    Aug 6, 2026 04:57
    Meme Coin Based on White House Shooter Conspiracy Rallies 320%
    $HENRY surged 300% after a 2023 Pepe tweet appeared to name the White House shooter, fueling a viral time-travel meme. The post Meme Coin Based on White House Shooter Conspiracy Rallies 320%...
    beincrypto.com
    Apr 27, 2026 16:11
    PEPE surges 4% as market sentiment improves, eyes Key resistance breakout
    Key takeaways Pepe extends gains on Wednesday, stretching its rally from the 50-day EMA. Derivatives data show heightened retail activity as risk-on sentiment returns to the market. Pepe (PEPE) is...
    coinjournal.net
    Apr 22, 2026 11:44
    Why The PEPE Price Could Stage A 55X Rally To Reach New $0.0001 ATH
    The PEPE price has now started to edge back into bullish conversations after the recent inflows into the crypto market. The last time PEPE’s weekly chart printed the kind of structure now...
    newsbtc.com
    Apr 21, 2026 15:30
    Pepe (PEPE) surges 9%, drawing interest from whales
    Key takeaways PEPE is up 9% in the last 24 hours, making it one of the best performers among the top 50 cryptocurrencies by market cap. The rally comes amid renewed interest from whales and retail...
    coinjournal.net
    Apr 16, 2026 07:40
    Murad Says SPX6900 (SPX) Is Primed for a Rally — Is He Right This Time?
    Crypto influencer Murad Mahmudov claims SPX6900 (SPX) is stabilizing at the same market cap level where Dogecoin (DOGE) and Pepe (PEPE) consolidated before their explosive rallies. The...
    beincrypto.com
    Apr 5, 2026 21:36
    The Shiba Inu Of This Cycle: Analyst Shares Why It Is Better To Buy PEPE Now
    In the bull market cycle of 2021-2022, the Shiba Inu meme coin made waves in a way that changed the face of meme coins forever. This came after Dogecoin’s initial 36,000% rally, and Shiba Inu...
    newsbtc.com
    Apr 4, 2026 07:30
    PEPE Explodes by 18% Amid Altcoin Rally, BTC Tapped $74K: Market Watch
    The frog-themed meme coin is today's biggest gainer, followed by TAO, DOT, and BONK.
    cryptopotato.com
    Mar 16, 2026 10:56
    Should PEPE traders brace for volatility as short squeeze potential builds?
    The memecoin market has seen its collective market capitalization drop by 48% over the past year, and 6.9% over the past month, according to CoinMarketCap. According to Glassnode, the memecoin...
    ambcrypto.com
    Mar 7, 2026 18:00
    チャットでコマンドを入力するだけです。 nick1を実際のニックネームに置き換えてください
    • /ignore nick1 チャットユーザーを無視する
    • /unignore nick1 チャットユーザーを無視しない
    • /ignorelist 無視したチャットユーザーを表示する